Location: Heidgraben
(53.7081°N, 9.6576°E)
Time: 07:29:42
(UTC+00:00)

CZ-4C R/B - Pass Details

Date: 05 July 2020
Orbit: 632 x 1370 km, 63.4° (Epoch: 14 August)

Event Time Altitude Azimuth Distance (km) Brightness Sun altitude
Rises 21:35:03 0° 301° (WNW) 3,524 6.5 -9.9°
Reaches altitude 10° 21:37:32 10° 308° (NW) 2,688 5.9 -10.1°
Maximum altitude 21:43:38 44° 20° (NNE) 1,478 3.9 -10.5°
Drops below altitude 10° 21:50:52 10° 90° (E) 3,187 5.0 -10.9°
Sets 21:54:03 0° 97° (E) 4,242 5.5 -11.1°
